Weather reports worldwide

Advertisment
Huesca, Spain (8094): temperature & dewpoint: 20.05.2019 00:00:00 - 26.05.2019 00:00:00 (CEST)Huesca, Spain (8094): wind speed: 20.05.2019 00:00:00 - 26.05.2019 00:00:00 (CEST)Huesca, Spain (8094): wind direction: 20.05.2019 00:00:00 - 26.05.2019 00:00:00 (CEST)Huesca, Spain (8094): reduced air pressure: 20.05.2019 00:00:00 - 26.05.2019 00:00:00 (CEST)Huesca, Spain (8094): visibility: 20.05.2019 00:00:00 - 26.05.2019 00:00:00 (CEST)Huesca, Spain (8094): precipitation: 20.05.2019 00:00:00 - 26.05.2019 00:00:00 (CEST)
Date & Time tt [°C] td [°C] ff [km/h] ff [kn] dd ppp [hPa] vv [km] rr [mm]
26.05.2019 00:00:00 - - - - - - - -
25.05.2019 23:00:00 13,2 7,2 8 4 W 1017,9 - -
25.05.2019 22:00:00 14,8 7,6 8 4 W 1017,0 - 0,0
25.05.2019 21:00:00 17,9 8,5 4 2 W 1015,6 - 0,0
25.05.2019 20:00:00 20,7 8,3 9 5 WNW 1014,6 - -
25.05.2019 19:00:00 22,4 7,4 13 7 WNW 1013,8 - 0,0
25.05.2019 18:00:00 23,6 7,6 13 7 WNW 1013,5 - 0,0
25.05.2019 17:00:00 24,2 8,2 15 8 W 1013,3 75 -
25.05.2019 16:00:00 22,7 8,0 11 6 WNW 1013,8 - 0,0
25.05.2019 15:00:00 24,4 9,5 11 6 WNW 1013,8 - 0,0
25.05.2019 14:00:00 23,9 9,5 9 5 WNW 1014,2 75 -
25.05.2019 13:00:00 22,2 8,0 5 3 WNW 1014,9 - 0,0
25.05.2019 12:00:00 20,9 7,8 8 4 NW 1015,4 - 0,0
25.05.2019 11:00:00 18,8 8,4 5 3 W 1015,8 75 -
25.05.2019 10:00:00 14,8 10,0 5 3 WSW 1016,7 - 0,0
25.05.2019 09:00:00 13,3 9,4 5 3 W 1016,8 - 0,0
25.05.2019 08:00:00 10,9 8,5 5 3 WSW 1017,1 - -
25.05.2019 07:00:00 9,5 7,3 5 3 WSW 1016,7 - 0,0
25.05.2019 06:00:00 9,5 7,1 4 2 WSW 1016,4 - 0,0
25.05.2019 05:00:00 10,5 7,4 4 2 W 1016,0 - -
25.05.2019 04:00:00 10,8 7,7 5 3 WNW 1016,1 - 0,0
25.05.2019 03:00:00 11,5 9,1 4 2 WNW 1015,8 - 0,0
25.05.2019 02:00:00 12,6 11,3 4 2 WSW 1015,7 - -
25.05.2019 01:00:00 13,0 11,9 2 1 ENE 1016,0 - 0,0
25.05.2019 00:00:00 13,4 12,3 5 3 E 1015,7 - 0,0
24.05.2019 23:00:00 13,9 12,3 5 3 E 1015,5 - -
24.05.2019 22:00:00 14,7 12,7 5 3 NE 1014,6 - 0,0
24.05.2019 21:00:00 15,8 12,5 5 3 SE 1014,1 - 0,0
24.05.2019 20:00:00 16,5 12,3 5 3 SSE 1013,6 - -
24.05.2019 19:00:00 17,0 12,1 4 2 SE 1013,6 - 0,0
24.05.2019 18:00:00 16,5 12,8 9 5 ESE 1013,8 - 0,0
24.05.2019 17:00:00 15,7 13,0 15 8 ESE 1014,0 50 -
24.05.2019 16:00:00 17,5 12,8 8 4 SE 1013,7 - 0,2
24.05.2019 15:00:00 18,4 10,7 5 3 W 1013,7 - 0,0
24.05.2019 14:00:00 18,7 11,7 4 2 SSW 1014,0 50 -
24.05.2019 13:00:00 16,7 11,4 4 2 NNW 1014,7 - 0,0
24.05.2019 12:00:00 15,1 12,8 5 3 WNW 1015,4 - 0,0
24.05.2019 11:00:00 13,2 12,1 5 3 W 1015,9 30 -
24.05.2019 10:00:00 12,9 12,4 4 2 W 1015,9 - 0,6
24.05.2019 09:00:00 11,9 11,6 4 2 WNW 1016,3 - 0,4
24.05.2019 08:00:00 11,9 11,3 4 2 W 1015,8 - -
24.05.2019 07:00:00 12,1 11,2 5 3 WSW 1015,5 - 0,0
24.05.2019 06:00:00 12,7 11,6 4 2 NNW 1015,1 - 1,0
24.05.2019 05:00:00 13,1 12,2 2 1 NNW 1015,3 - -
24.05.2019 04:00:00 13,0 11,4 4 2 W 1015,5 - 0,0
24.05.2019 03:00:00 14,1 11,8 8 4 W 1015,3 - 0,2
24.05.2019 02:00:00 16,0 11,8 5 3 ENE 1014,5 - -
24.05.2019 01:00:00 16,4 12,4 4 2 NNW 1015,1 - 0,0
24.05.2019 00:00:00 16,4 11,3 11 6 WSW 1015,4 - 0,0
23.05.2019 23:00:00 19,4 7,2 4 2 NW 1013,9 - -
23.05.2019 22:00:00 19,9 8,2 8 4 NNE 1013,1 - 0,0
23.05.2019 21:00:00 20,4 10,8 8 4 S 1013,1 - 0,0
23.05.2019 20:00:00 23,7 8,1 8 4 W 1012,3 - -
23.05.2019 19:00:00 25,1 6,8 5 3 W 1011,7 - 0,0
23.05.2019 18:00:00 26,0 6,1 8 4 WNW 1011,7 - 0,0
23.05.2019 17:00:00 26,5 4,9 9 5 WNW 1012,1 45 -
23.05.2019 16:00:00 25,9 4,9 9 5 WSW 1012,7 - 0,0
23.05.2019 15:00:00 25,6 6,7 5 3 W 1013,3 - 0,0
23.05.2019 14:00:00 25,0 7,2 8 4 WNW 1014,2 50 -
23.05.2019 13:00:00 23,5 9,5 8 4 SSW 1015,2 - 0,0
23.05.2019 12:00:00 22,9 10,3 8 4 WSW 1015,6 - 0,0
23.05.2019 11:00:00 21,7 7,9 8 4 SE 1016,0 45 -
23.05.2019 10:00:00 19,8 8,2 9 5 SE 1016,6 - 0,0
23.05.2019 09:00:00 17,8 7,8 8 4 E 1016,9 - 0,0
23.05.2019 08:00:00 15,3 6,6 8 4 E 1017,5 - -
23.05.2019 07:00:00 12,2 5,8 9 5 E 1017,8 - 0,0
23.05.2019 06:00:00 12,4 5,5 5 3 E 1017,8 - 0,0
23.05.2019 05:00:00 12,9 6,0 11 6 E 1017,4 - -
23.05.2019 04:00:00 13,2 6,3 9 5 E 1017,4 - 0,0
23.05.2019 03:00:00 14,4 5,5 11 6 ENE 1017,6 - 0,0
23.05.2019 02:00:00 14,6 6,4 9 5 ENE 1017,7 - -
23.05.2019 01:00:00 14,0 7,3 9 5 ENE 1017,9 - 0,0
23.05.2019 00:00:00 16,2 5,5 2 1 WNW 1017,3 - 0,0
22.05.2019 23:00:00 17,0 6,2 4 2 WNW 1016,9 - -
22.05.2019 22:00:00 18,2 6,4 2 1 SSW 1016,0 - 0,0
22.05.2019 21:00:00 20,8 7,1 2 1 ENE 1015,1 - 0,0
22.05.2019 20:00:00 23,2 6,9 4 2 NW 1014,4 - -
22.05.2019 19:00:00 24,0 5,3 5 3 WNW 1014,2 - 0,0
22.05.2019 18:00:00 24,3 5,6 8 4 WSW 1014,2 - 0,0
22.05.2019 17:00:00 24,2 6,9 8 4 W 1014,5 55 -
22.05.2019 16:00:00 23,9 7,1 5 3 SW 1014,7 - 0,0
22.05.2019 15:00:00 23,3 3,2 8 4 SSW 1015,5 - 0,0
22.05.2019 14:00:00 22,1 5,5 5 3 SSE 1016,0 35 -
22.05.2019 13:00:00 20,7 8,7 9 5 E 1016,7 - 0,0
22.05.2019 12:00:00 19,7 9,3 8 4 SE 1017,0 - 0,0
22.05.2019 11:00:00 17,8 9,4 8 4 ESE 1017,4 20 -
22.05.2019 10:00:00 15,1 9,5 5 3 WSW 1018,2 - 0,0
22.05.2019 09:00:00 14,5 9,5 5 3 ESE 1017,9 - 0,0
22.05.2019 08:00:00 11,9 8,2 5 3 ENE 1018,4 - -
22.05.2019 07:00:00 9,2 7,0 5 3 NE 1018,7 - 0,0
22.05.2019 06:00:00 8,2 6,2 8 4 E 1018,5 - 0,0
22.05.2019 05:00:00 7,8 6,1 8 4 ENE 1018,4 - -
22.05.2019 04:00:00 8,5 5,9 5 3 SSE 1018,2 - 0,0
22.05.2019 03:00:00 10,0 6,2 4 2 W 1017,8 - 0,0
22.05.2019 02:00:00 10,6 6,3 4 2 WNW 1017,6 - -
22.05.2019 01:00:00 11,5 6,6 5 3 WSW 1017,1 - 0,0
22.05.2019 00:00:00 13,6 6,0 5 3 W 1016,5 - 0,0
21.05.2019 23:00:00 14,5 6,3 4 2 W 1016,1 - -
21.05.2019 22:00:00 16,1 6,5 5 3 WSW 1015,0 - 0,0
21.05.2019 21:00:00 18,4 4,9 4 2 WSW 1013,8 - 0,0
21.05.2019 20:00:00 21,1 5,4 8 4 W 1012,6 - -
21.05.2019 19:00:00 22,4 6,2 8 4 W 1012,1 - 0,0
21.05.2019 18:00:00 22,4 6,2 9 5 W 1012,3 - 0,0
21.05.2019 17:00:00 22,5 5,0 8 4 W 1012,4 60 -
21.05.2019 16:00:00 22,5 3,1 9 5 WSW 1012,9 - 0,0
21.05.2019 15:00:00 21,1 5,4 8 4 W 1013,4 - 0,0
21.05.2019 14:00:00 20,3 4,3 8 4 W 1013,9 50 -
21.05.2019 13:00:00 19,2 7,3 9 5 W 1014,5 - 0,0
21.05.2019 12:00:00 18,3 6,8 5 3 SSE 1015,0 - 0,0
21.05.2019 11:00:00 16,6 7,2 11 6 SE 1015,5 50 -
21.05.2019 10:00:00 15,3 7,6 11 6 SE 1015,6 - 0,0
21.05.2019 09:00:00 12,4 7,3 5 3 ESE 1015,9 - 0,0
21.05.2019 08:00:00 10,3 6,1 0 0 N 1015,9 - -
21.05.2019 07:00:00 7,9 5,2 5 3 NE 1015,9 - 0,0
21.05.2019 06:00:00 7,2 4,0 8 4 ENE 1015,8 - 0,0
21.05.2019 05:00:00 8,1 4,9 4 2 W 1015,6 - -
21.05.2019 04:00:00 8,1 5,0 5 3 NNW 1015,4 - 0,0
21.05.2019 03:00:00 8,8 4,8 4 2 W 1015,4 - 0,0
21.05.2019 02:00:00 10,0 5,0 5 3 W 1015,0 - -
21.05.2019 01:00:00 10,7 4,4 4 2 WNW 1014,6 - 0,0
21.05.2019 00:00:00 11,7 3,9 5 3 W 1014,1 - 0,0
20.05.2019 23:00:00 13,2 3,0 4 2 WNW 1013,4 - -
20.05.2019 22:00:00 14,0 2,2 4 2 NW 1012,3 - 0,0
20.05.2019 21:00:00 16,7 1,9 4 2 WNW 1011,3 - 0,0
20.05.2019 20:00:00 19,1 0,1 8 4 W 1010,4 - -
20.05.2019 19:00:00 20,1 2,4 11 6 W 1009,8 - 0,0
20.05.2019 18:00:00 20,7 5,1 9 5 W 1009,7 - 0,0
20.05.2019 17:00:00 20,9 6,0 13 7 WSW 1009,6 65 -
20.05.2019 16:00:00 20,5 5,3 11 6 W 1009,8 - 0,0
20.05.2019 15:00:00 19,7 6,4 18 10 WSW 1010,5 - 0,0
20.05.2019 14:00:00 18,6 6,7 18 10 WSW 1011,0 55 -
20.05.2019 13:00:00 18,0 7,4 13 7 WSW 1011,3 - 0,0
20.05.2019 12:00:00 17,1 6,0 9 5 W 1011,7 - 0,0
20.05.2019 11:00:00 14,7 6,8 13 7 WSW 1012,3 55 -
20.05.2019 10:00:00 12,4 6,9 8 4 WSW 1012,8 - 0,0
20.05.2019 09:00:00 9,2 5,7 5 3 W 1013,3 - 0,0
20.05.2019 08:00:00 7,4 5,4 5 3 W 1013,2 - -
20.05.2019 07:00:00 5,3 4,3 5 3 W 1013,3 - 0,0
20.05.2019 06:00:00 5,1 4,2 8 4 W 1012,9 - 0,0
20.05.2019 05:00:00 5,8 4,4 5 3 WSW 1012,5 - -
20.05.2019 04:00:00 7,1 4,4 4 2 WSW 1012,3 - 0,0
20.05.2019 03:00:00 7,4 4,0 4 2 W 1012,4 - 0,0
20.05.2019 02:00:00 7,8 4,4 5 3 W 1012,4 - -
20.05.2019 01:00:00 8,3 4,5 4 2 W 1012,3 - 0,0
20.05.2019 00:00:00 8,9 4,7 8 4 W 1012,2 - 0,0

tt = temperature
td = dewpoint
ff = wind speed
dd = wind direction
ppp = reduced air pressure
vv = visibility
rr = precipitation

Next stations